Weather in Fedorivka

Ukraine / Zaporizhia Region     47°33′04″N   36°32′54″E
temp.,
°C
wind,
m/s
gust,
m/s
humid.,
%
clouds,
%
prec.,
mm/h
press.,
hPa
HPBL,
m
5 march, fri
fri523:00+3sw8178333 0.0 1014570
02:00+2sw8159029 0.0 1013522
05:00+3sw8139094 0.0 1013522
08:00+4wsw7119197 0.0 1013528
11:00+6wsw5787100 0.0 1013600
14:00+6sw3688100 0.0 1013445
17:00+6s3686100 0.0 1012188
20:00+5s4784100 0.0 1013145
6 march, sat
sat623:00+4ssw3490100 0.0 101173
02:00+3sw4893100 0.0 1011202
05:00+3sw5992100 0.1 1010256
08:00+2nnw7995100 0.1 1012478
11:00+2nnw81175100 0.1 1015943
14:00+2nnw81157100 0.1 10181455
17:000nnw7115195 0.0 10201219
20:00−2nw4106148 0.0 1024952
7 march, sun
sun723:00−2wnw48640 0.0 1025812
02:00−2w59610 0.0 1026523
05:00−3w49690 0.0 1026362
08:00−1w57610 0.0 1026538
11:00+2w79440 0.0 10241495
14:00+3wsw710430 0.0 10221475
17:00+1wsw5115021 0.0 1020530
20:00−1wsw6135514 0.0 1020390
8 march, mon
mon823:00−1wsw714647 0.0 1019505
02:00−1wsw715753 0.0 1017527
05:00−1wsw7147931 0.0 1016435
08:00+2wsw8136742 0.0 1016760
11:00+6wsw8125036 0.0 10151650
14:00+6w8114739 0.0 10151782
17:00+4wnw495867 0.0 1014368
20:00+1nne127783 0.0 101522
9 march, tue
tue923:00+1ne1181100 0.0 101524
02:000sw1283100 0.0 101422
05:00−1sw368450 0.0 1014137
08:00+2w6107168 0.0 1014813
11:00+1nw5785100 0.9 1015610
14:00+3nnw565089 1.1 10161641
17:00+1nnw365899 0.1 1017351
20:00−1n267388 0.1 1019210